Home > Time Zones > World Clock > Weather > Russia > Perm > Past weeks

Flag for Russia Weather past 2 weeks in Perm, Russia

Now
48 °F

Clear.


Feels Like: 45 °F
Forecast: 43 / 64 °F
Wind: 8 mph from Southwest

Location: Perm'/Bolshoe Savino

Current Time: Sep 23, 2014 at 12:45:58 AM

Latest Report: Sep 23, 2014 at 12:00 AM


Visibility: 10 mi

Pressure: 30.12 "Hg

Humidity: 94%

Dew point: 46 °F

Location of PermLocation

Historic Weather in Perm — Graph

°F

Perm temperature yesterday

Maximum temperature yesterday: 66 °F (at 4:00 PM)
Minimum temperature yesterday: 45 °F (at 8:00 AM)
Average temperature yesterday: 53 °F

Past Weeks' High & Low Weather Summary

 TemperatureHumidityPressure
High70 °F (Sep 12, 3:00 PM)100% (Sep 8, 5:00 AM)30.33 "Hg (Sep 8, 5:00 AM)
Low28 °F (Sep 15, 7:00 AM)43% (Sep 22, 6:30 PM)29.71 "Hg (Sep 16, 1:30 PM)
Average48 °F83%30.10 "Hg
* Reported Sep 7 11:00 PM — Sep 22 11:30 PM, Perm, Weather by CustomWeather, © 2014

Note: Actual official high and low records may vary slightly from our data, if they occured in-between our weather recording intervals... More about our weather records

Advertising

Perm weather history for previous 24 hours

 ConditionsComfort  
Time TempWeatherWind HumidityBarometerVisibility
11:30 PM
Sep 22
48 °FClear.8 mph94%30.12 "Hg10 mi
11:00 PM50 °FClear.8 mph88%30.09 "Hg10 mi
10:30 PM52 °FClear.10 mph82%30.09 "Hg10 mi
10:00 PM52 °FClear.10 mph82%30.09 "Hg10 mi
9:30 PM50 °FClear.6 mph82%30.09 "Hg10 mi
9:00 PM52 °FClear.6 mph72%30.09 "Hg10 mi
8:30 PM54 °FClear.8 mph72%30.09 "Hg10 mi
8:00 PM55 °FSunny.6 mph67%30.07 "Hg10 mi
7:30 PM63 °FSunny.6 mph52%30.07 "Hg10 mi
7:00 PM64 °FSunny.8 mph46%30.07 "Hg10 mi
6:30 PM66 °FSunny.8 mph43%30.07 "Hg10 mi
6:00 PM66 °FSunny.8 mph46%30.07 "Hg10 mi
5:30 PM66 °FSunny.8 mph46%30.09 "Hg10 mi
5:00 PM66 °FSunny.10 mph49%30.09 "Hg10 mi
4:30 PM66 °FPassing clouds.8 mph46%30.09 "HgN/A
4:00 PM66 °FSunny.10 mph46%30.09 "Hg10 mi
3:30 PM64 °FSunny.10 mph49%30.09 "Hg10 mi
3:00 PM64 °FPassing clouds.8 mph49%30.09 "HgN/A
2:30 PM64 °FPassing clouds.8 mph52%30.12 "HgN/A
2:00 PM64 °FSunny.8 mph56%30.12 "Hg10 mi
1:30 PM63 °FPassing clouds.6 mph64%30.12 "HgN/A
1:00 PM61 °FSunny.6 mph63%30.12 "Hg10 mi
12:30 PM57 °FSunny.6 mph77%30.12 "Hg10 mi
12:00 PM55 °FSunny.6 mph82%30.12 "Hg10 mi
11:30 AM54 °FSunny.8 mph88%30.12 "Hg10 mi
11:00 AM52 °FScattered clouds.6 mph94%30.12 "Hg6 mi
10:30 AM50 °FScattered clouds.6 mph94%30.12 "Hg5 mi
10:00 AM48 °FScattered clouds.6 mph100%30.09 "Hg4 mi
9:30 AM46 °FFog.8 mph100%30.09 "Hg3 mi
9:00 AM46 °FFog.8 mph93%30.09 "Hg3 mi
8:30 AM45 °FFog.6 mph100%30.09 "Hg2 mi
8:00 AM45 °FScattered clouds.3 mph100%30.09 "Hg4 mi
7:30 AM46 °FFog.6 mph93%30.09 "Hg3 mi
7:00 AM46 °FFog.6 mph93%30.09 "Hg3 mi
6:00 AM46 °FFog.8 mph93%30.09 "Hg3 mi
5:30 AM46 °FFog.8 mph93%30.07 "Hg3 mi
5:00 AM46 °FClear.8 mph100%30.09 "Hg4 mi
4:30 AM46 °FFog.8 mph100%30.09 "Hg3 mi
4:00 AM46 °FFog.10 mph93%30.07 "Hg3 mi
3:30 AM46 °FFog.10 mph93%30.09 "Hg3 mi
3:00 AM46 °FFog.10 mph100%30.07 "Hg3 mi
2:30 AM46 °FFog.10 mph100%30.07 "Hg3 mi
2:00 AM46 °FFog.10 mph100%30.07 "Hg3 mi
1:30 AM46 °FFog.10 mph100%30.07 "Hg2 mi
1:00 AM46 °FFog.10 mph100%30.07 "Hg2 mi
12:30 AM46 °FFog.10 mph100%30.07 "Hg3 mi
12:00 AM46 °FFog.10 mph100%30.07 "Hg3 mi
Weather by CustomWeather, © 2014

See weather overviewHow to use our weather pages